Starlink 30705

operational
NORAD ID: 57945 Int'l Des: 2023-148 Owner: SPXS Country: US Constellation: starlink
LEOCIRCULAR

About Starlink 30705

Description loading...

Live Position

Loading 3D Globe...

Upcoming Passes

Altitude History

Altitude vs Time

uPlot chart will show altitude changes over time

Two-Line Element Set

1 57945U 23148L 25304.18719546 .00000374 00000-0 24740-4 0 9998
2 57945 53.1604 265.9044 0001188 83.1602 276.9534 15.30192596118590
Epoch: Oct 31, 2025 • Age: 21 hours

Current Status

Altitude 491.8 km
Velocity 7.62 km/s
Sub-Earth Point -46.47°S, 63.76°E
Launch Date Sep 25, 2023
Age 2 years
Type internet

Technical Details

Classification Payload
Mass 730.00 kg
Dry Mass 700.00 kg
Total Mass 730.00 kg
Length 0.30 m
Diameter 4.10 m
Span 29.00 m
Shape Box + pan
Manufacturer SPXS
Bus Type Starlink V2M
Phase Status In Orbit
Owner/State SPXS/US

Large Constellations

Loading constellations...